| time (UTC) | temp F | wind direction | speed MPH | gust MPH | rain 1hr in | rain 24hr in | rain mn in | humidity % | barometer mb |
| 20260906112237 | 65 | 62 | 2.0 | 5.0 | 0.00 | 0.00 | 0.00 | 86 | 1016.9 |
| 20260906111237 | 65 | 74 | 4.0 | 5.0 | 0.00 | 0.00 | 0.00 | 84 | 1017.0 |
| 20260906110737 | 66 | 53 | 3.0 | 4.0 | 0.00 | 0.00 | 0.00 | 83 | 1017.0 |
| 20260906110236 | 66 | 44 | 2.0 | 3.0 | 0.00 | 0.00 | 0.00 | 82 | 1017.2 |
| 20260906105737 | 66 | 44 | 0.0 | 4.0 | 0.00 | 0.00 | 0.00 | 79 | 1017.4 |
| 20260906105237 | 66 | 43 | 2.0 | 4.0 | 0.00 | 0.00 | 0.00 | 79 | 1017.1 |
| 20260906104736 | 66 | 42 | 3.0 | 4.0 | 0.00 | 0.00 | 0.00 | 78 | 1017.2 |
| 20260906104236 | 66 | 59 | 3.0 | 4.0 | 0.00 | 0.00 | 0.00 | 77 | 1017.3 |
| 20260906103236 | 66 | 44 | 1.0 | 4.0 | 0.00 | 0.00 | 0.00 | 77 | 1017.2 |
| 20260906102237 | 67 | 46 | 3.0 | 4.0 | 0.00 | 0.00 | 0.00 | 73 | 1017.4 |
| 20260906101737 | 67 | 54 | 3.0 | 3.0 | 0.00 | 0.00 | 0.00 | 73 | 1017.4 |
| 20260906101236 | 68 | 52 | 0.0 | 3.0 | 0.00 | 0.00 | 0.00 | 71 | 1017.6 |
| 20260906100736 | 68 | 52 | 0.0 | 3.0 | 0.00 | 0.00 | 0.00 | 67 | 1017.6 |
| 20260906100236 | 68 | 52 | 2.0 | 4.0 | 0.00 | 0.00 | 0.00 | 65 | 1017.5 |
| 20260906095736 | 68 | 51 | 2.0 | 4.0 | 0.00 | 0.00 | 0.00 | 64 | 1017.7 |
| 20260906095236 | 68 | 52 | 2.0 | 4.0 | 0.00 | 0.00 | 0.00 | 64 | 1017.7 |
| 20260906094736 | 68 | 51 | 3.0 | 4.0 | 0.00 | 0.00 | 0.00 | 63 | 1017.7 |
| 20260906094236 | 68 | 52 | 3.0 | 4.0 | 0.00 | 0.00 | 0.00 | 63 | 1017.7 |
| 20260906093736 | 68 | 51 | 3.0 | 3.0 | 0.00 | 0.00 | 0.00 | 63 | 1017.7 |
| 20260906093235 | 68 | 48 | 3.0 | 5.0 | 0.00 | 0.00 | 0.00 | 64 | 1017.8 |
| 20260906092235 | 68 | 66 | 4.0 | 4.0 | 0.00 | 0.00 | 0.00 | 63 | 1017.8 |
| 20260906091736 | 68 | 55 | 1.0 | 4.0 | 0.00 | 0.00 | 0.00 | 63 | 1017.8 |
| 20260906091235 | 68 | 67 | 3.0 | 4.0 | 0.00 | 0.00 | 0.00 | 63 | 1017.8 |
| 20260906090236 | 68 | 52 | 2.0 | 4.0 | 0.00 | 0.00 | 0.00 | 64 | 1018.0 |
| 20260906085735 | 68 | 50 | 3.0 | 4.0 | 0.00 | 0.00 | 0.00 | 64 | 1017.8 |
| 20260906085235 | 68 | 36 | 2.0 | 2.0 | 0.00 | 0.00 | 0.00 | 64 | 1017.9 |
| 20260906084735 | 69 | 35 | 1.0 | 4.0 | 0.00 | 0.00 | 0.00 | 64 | 1018.1 |
| 20260906084235 | 69 | 35 | 1.0 | 4.0 | 0.00 | 0.00 | 0.00 | 65 | 1018.2 |
| 20260906083735 | 69 | 64 | 2.0 | 4.0 | 0.00 | 0.00 | 0.00 | 65 | 1018.2 |
| 20260906083235 | 69 | 53 | 3.0 | 4.0 | 0.00 | 0.00 | 0.00 | 65 | 1018.2 |
| 20260906082735 | 69 | 41 | 2.0 | 3.0 | 0.00 | 0.00 | 0.00 | 65 | 1018.4 |
| 20260906082235 | 69 | 40 | 1.0 | 4.0 | 0.00 | 0.00 | 0.00 | 65 | 1018.4 |
| 20260906081735 | 69 | 37 | 2.0 | 4.0 | 0.00 | 0.00 | 0.00 | 65 | 1018.4 |
| 20260906081235 | 69 | 53 | 0.0 | 0.0 | 0.00 | 0.00 | 0.00 | 66 | 1018.4 |
| 20260906080735 | 69 | 53 | 0.0 | 0.0 | 0.00 | 0.00 | 0.00 | 66 | 1018.5 |
| 20260906080235 | 69 | 70 | 0.0 | 0.0 | 0.00 | 0.00 | 0.00 | 66 | 1018.6 |
| 20260906075734 | 69 | 71 | 0.0 | 0.0 | 0.00 | 0.00 | 0.00 | 66 | 1018.6 |
| 20260906075235 | 69 | 68 | 0.0 | 0.0 | 0.00 | 0.00 | 0.00 | 66 | 1018.7 |
| 20260906074735 | 69 | 69 | 0.0 | 0.0 | 0.00 | 0.00 | 0.00 | 65 | 1018.7 |
| 20260906074234 | 69 | 69 | 0.0 | 0.0 | 0.00 | 0.00 | 0.00 | 65 | 1018.8 |
| 20260906073735 | 69 | 69 | 0.0 | 0.0 | 0.00 | 0.00 | 0.00 | 65 | 1018.9 |
| 20260906073234 | 69 | 65 | 0.0 | 0.0 | 0.00 | 0.00 | 0.00 | 65 | 1018.9 |
| 20260906072734 | 69 | 63 | 0.0 | 0.0 | 0.00 | 0.00 | 0.00 | 64 | 1019.0 |
| 20260906072234 | 69 | 61 | 0.0 | 0.0 | 0.00 | 0.00 | 0.00 | 62 | 1018.8 |
| 20260906071734 | 69 | 61 | 0.0 | 0.0 | 0.00 | 0.00 | 0.00 | 62 | 1018.9 |
| 20260906071234 | 69 | 65 | 0.0 | 0.0 | 0.00 | 0.00 | 0.00 | 62 | 1019.1 |
| 20260906070234 | 69 | 67 | 0.0 | 2.0 | 0.00 | 0.00 | 0.00 | 62 | 1018.9 |
| 20260906065235 | 68 | 70 | 1.0 | 3.0 | 0.00 | 0.00 | 0.00 | 63 | 1018.8 |
| 20260906064234 | 68 | 70 | 3.0 | 4.0 | 0.00 | 0.00 | 0.00 | 63 | 1018.7 |
| 20260906063734 | 68 | 74 | 1.0 | 4.0 | 0.00 | 0.00 | 0.00 | 63 | 1018.7 |
| 20260906063233 | 68 | 61 | 3.0 | 3.0 | 0.00 | 0.00 | 0.00 | 63 | 1018.8 |
| 20260906062734 | 68 | 57 | 2.0 | 4.0 | 0.00 | 0.00 | 0.00 | 63 | 1018.8 |
| 20260906062234 | 69 | 58 | 2.0 | 4.0 | 0.00 | 0.00 | 0.00 | 62 | 1019.0 |
| 20260906061733 | 69 | 57 | 4.0 | 4.0 | 0.00 | 0.00 | 0.00 | 62 | 1019.0 |
| 20260906061233 | 69 | 57 | 2.0 | 3.0 | 0.00 | 0.00 | 0.00 | 61 | 1019.0 |
| 20260906055733 | 69 | 57 | 2.0 | 4.0 | 0.00 | 0.00 | 0.00 | 59 | 1018.7 |
| 20260906055233 | 69 | 53 | 1.0 | 4.0 | 0.00 | 0.00 | 0.00 | 58 | 1018.7 |
| 20260906054733 | 69 | 44 | 2.0 | 3.0 | 0.00 | 0.00 | 0.00 | 58 | 1018.8 |
| 20260906054233 | 69 | 49 | 2.0 | 3.0 | 0.00 | 0.00 | 0.00 | 58 | 1018.9 |
| 20260906053733 | 69 | 49 | 2.0 | 3.0 | 0.00 | 0.00 | 0.00 | 57 | 1018.8 |
| 20260906052734 | 69 | 51 | 2.0 | 3.0 | 0.00 | 0.00 | 0.00 | 56 | 1018.8 |
| 20260906052233 | 69 | 51 | 1.0 | 3.0 | 0.00 | 0.00 | 0.00 | 56 | 1018.9 |
| 20260906051732 | 69 | 51 | 0.0 | 3.0 | 0.00 | 0.00 | 0.00 | 56 | 1018.9 |
| 20260906051232 | 69 | 55 | 2.0 | 3.0 | 0.00 | 0.00 | 0.00 | 56 | 1018.8 |
| 20260906050732 | 69 | 58 | 0.0 | 0.0 | 0.00 | 0.00 | 0.00 | 56 | 1018.8 |
| 20260906050233 | 69 | 55 | 0.0 | 0.0 | 0.00 | 0.00 | 0.00 | 56 | 1018.9 |
| 20260906045733 | 69 | 59 | 0.0 | 0.0 | 0.00 | 0.00 | 0.00 | 56 | 1018.7 |
| 20260906045232 | 69 | 59 | 0.0 | 0.0 | 0.00 | 0.00 | 0.00 | 56 | 1018.7 |
| 20260906044732 | 69 | 132 | 0.0 | 0.0 | 0.00 | 0.00 | 0.00 | 55 | 1018.8 |
| 20260906044233 | 69 | 132 | 0.0 | 0.0 | 0.00 | 0.00 | 0.00 | 55 | 1018.7 |
| 20260906043732 | 69 | 132 | 0.0 | 0.0 | 0.00 | 0.00 | 0.00 | 55 | 1018.8 |
| 20260906043232 | 69 | 132 | 0.0 | 0.0 | 0.00 | 0.00 | 0.00 | 55 | 1018.8 |
| 20260906041232 | 70 | 244 | 0.0 | 0.0 | 0.00 | 0.00 | 0.00 | 52 | 1018.7 |
| 20260906040732 | 70 | 244 | 0.0 | 0.0 | 0.00 | 0.00 | 0.00 | 52 | 1018.6 |
| 20260906040232 | 71 | 244 | 0.0 | 0.0 | 0.00 | 0.00 | 0.00 | 52 | 1018.8 |
| 20260906035732 | 71 | 244 | 0.0 | 0.0 | 0.00 | 0.00 | 0.00 | 52 | 1018.4 |
| 20260906035232 | 71 | 244 | 0.0 | 0.0 | 0.00 | 0.00 | 0.00 | 52 | 1018.4 |
| 20260906034732 | 72 | 244 | 0.0 | 2.0 | 0.00 | 0.00 | 0.00 | 52 | 1018.7 |
| 20260906034231 | 72 | 244 | 0.0 | 2.0 | 0.00 | 0.00 | 0.00 | 51 | 1018.6 |
| 20260906032732 | 73 | 244 | 0.0 | 0.0 | 0.00 | 0.00 | 0.00 | 50 | 1018.5 |
| 20260906031732 | 73 | 244 | 0.0 | 0.0 | 0.00 | 0.00 | 0.00 | 49 | 1018.3 |
| 20260906031232 | 73 | 244 | 0.0 | 0.0 | 0.00 | 0.00 | 0.00 | 49 | 1018.3 |
| 20260906030301 | 74 | 244 | 0.0 | 3.0 | 0.00 | 0.00 | 0.00 | 49 | 1018.6 |
| 20260906025731 | 74 | 244 | 0.0 | 4.0 | 0.00 | 0.00 | 0.00 | 49 | 1018.4 |
| 20260906024231 | 75 | 234 | 1.0 | 4.0 | 0.00 | 0.00 | 0.00 | 48 | 1018.3 |
| 20260906023731 | 75 | 232 | 1.0 | 4.0 | 0.00 | 0.00 | 0.00 | 48 | 1018.3 |
| 20260906023231 | 76 | 232 | 0.0 | 3.0 | 0.00 | 0.00 | 0.00 | 47 | 1018.4 |
| 20260906022730 | 76 | 232 | 0.0 | 3.0 | 0.00 | 0.00 | 0.00 | 47 | 1018.5 |
| 20260906021731 | 77 | 232 | 0.0 | 5.0 | 0.00 | 0.00 | 0.00 | 46 | 1018.5 |
| 20260906021230 | 77 | 225 | 4.0 | 5.0 | 0.00 | 0.00 | 0.00 | 46 | 1018.5 |
| 20260906020730 | 77 | 243 | 3.0 | 5.0 | 0.00 | 0.00 | 0.00 | 45 | 1018.6 |
| 20260906020219 | 77 | 242 | 3.0 | 6.0 | 0.00 | 0.00 | 0.00 | 45 | 1018.5 |
| 20260906015730 | 78 | 256 | 3.0 | 7.0 | 0.00 | 0.00 | 0.00 | 44 | 1018.7 |
| 20260906015230 | 78 | 248 | 1.0 | 9.0 | 0.00 | 0.00 | 0.00 | 44 | 1018.7 |
| 20260906014730 | 78 | 254 | 5.0 | 9.0 | 0.00 | 0.00 | 0.00 | 44 | 1018.8 |
| 20260906013230 | 79 | 241 | 1.0 | 8.0 | 0.00 | 0.00 | 0.00 | 43 | 1018.7 |
| 20260906012730 | 79 | 234 | 4.0 | 8.0 | 0.00 | 0.00 | 0.00 | 42 | 1018.7 |
| 20260906011730 | 80 | 238 | 3.0 | 6.0 | 0.00 | 0.00 | 0.00 | 42 | 1019.1 |
| 20260906011230 | 80 | 236 | 4.0 | 9.0 | 0.00 | 0.00 | 0.00 | 42 | 1019.0 |
| 20260906010730 | 80 | 227 | 3.0 | 9.0 | 0.00 | 0.00 | 0.00 | 42 | 1019.1 |
| 20260906010300 | 80 | 265 | 1.0 | 8.0 | 0.00 | 0.00 | 0.00 | 42 | 1019.0 |
| 20260906005730 | 80 | 229 | 5.0 | 9.0 | 0.00 | 0.00 | 0.00 | 41 | 1019.2 |
| 20260906005230 | 81 | 238 | 2.0 | 10.0 | 0.00 | 0.00 | 0.00 | 41 | 1019.1 |
| 20260906004730 | 81 | 270 | 4.0 | 10.0 | 0.00 | 0.00 | 0.00 | 41 | 1019.0 |
| 20260906004229 | 82 | 239 | 8.0 | 10.0 | 0.00 | 0.00 | 0.00 | 40 | 1019.2 |
| 20260906003718 | 82 | 230 | 4.0 | 10.0 | 0.00 | 0.00 | 0.00 | 40 | 1019.2 |
| 20260906003230 | 83 | 219 | 8.0 | 10.0 | 0.00 | 0.00 | 0.00 | 39 | 1019.1 |
| 20260906002729 | 84 | 229 | 9.0 | 11.0 | 0.00 | 0.00 | 0.00 | 38 | 1019.4 |
| 20260906002229 | 84 | 243 | 8.0 | 11.0 | 0.00 | 0.00 | 0.00 | 38 | 1019.3 |
| 20260906001729 | 84 | 261 | 8.0 | 13.0 | 0.00 | 0.00 | 0.00 | 37 | 1019.2 |
| 20260906001229 | 84 | 208 | 0.0 | 13.0 | 0.00 | 0.00 | 0.00 | 37 | 1019.3 |
| 20260906000300 | 85 | 206 | 5.0 | 13.0 | 0.00 | 0.00 | 0.00 | 37 | 1019.4 |
| 20260905235718 | 85 | 226 | 3.0 | 12.0 | 0.00 | 0.00 | 0.00 | 36 | 1019.3 |
| 20260905235229 | 85 | 242 | 1.0 | 10.0 | 0.00 | 0.00 | 0.00 | 36 | 1019.3 |
| 20260905234729 | 86 | 236 | 4.0 | 10.0 | 0.00 | 0.00 | 0.00 | 36 | 1019.5 |
| 20260905233729 | 85 | 238 | 4.0 | 11.0 | 0.00 | 0.00 | 0.00 | 36 | 1019.2 |
| 20260905233229 | 85 | 282 | 2.0 | 9.0 | 0.00 | 0.00 | 0.00 | 36 | 1019.2 |
| 20260905232729 | 86 | 200 | 3.0 | 9.0 | 0.00 | 0.00 | 0.00 | 35 | 1019.5 |
| 20260905232228 | 86 | 355 | 2.0 | 10.0 | 0.00 | 0.00 | 0.00 | 35 | 1019.4 |
| 20260905231729 | 86 | 225 | 3.0 | 11.0 | 0.00 | 0.00 | 0.00 | 34 | 1019.6 |
| 20260905231229 | 86 | 248 | 4.0 | 11.0 | 0.00 | 0.00 | 0.00 | 34 | 1019.5 |
| 20260905230729 | 87 | 242 | 4.0 | 10.0 | 0.00 | 0.00 | 0.00 | 33 | 1019.5 |
| 20260905230258 | 87 | 225 | 8.0 | 10.0 | 0.00 | 0.00 | 0.00 | 32 | 1019.5 |
| 20260905225729 | 88 | 229 | 2.0 | 11.0 | 0.00 | 0.00 | 0.00 | 32 | 1019.7 |
| 20260905224258 | 89 | 259 | 3.0 | 13.0 | 0.00 | 0.00 | 0.00 | 30 | 1019.7 |
| 20260905223758 | 89 | 217 | 7.0 | 13.0 | 0.00 | 0.00 | 0.00 | 30 | 1019.8 |
| 20260905223258 | 89 | 230 | 11.0 | 13.0 | 0.00 | 0.00 | 0.00 | 29 | 1019.9 |
| 20260905222758 | 89 | 209 | 6.0 | 13.0 | 0.00 | 0.00 | 0.00 | 29 | 1019.9 |
| 20260905221758 | 90 | 267 | 6.0 | 14.0 | 0.00 | 0.00 | 0.00 | 29 | 1020.1 |
| 20260905221258 | 90 | 221 | 4.0 | 14.0 | 0.00 | 0.00 | 0.00 | 29 | 1020.3 |
| 20260905220758 | 89 | 246 | 3.0 | 11.0 | 0.00 | 0.00 | 0.00 | 30 | 1020.0 |
| 20260905220258 | 89 | 236 | 9.0 | 11.0 | 0.00 | 0.00 | 0.00 | 31 | 1020.1 |
| 20260905215757 | 88 | 229 | 1.0 | 12.0 | 0.00 | 0.00 | 0.00 | 32 | 1020.3 |
| 20260905215257 | 88 | 255 | 8.0 | 12.0 | 0.00 | 0.00 | 0.00 | 31 | 1020.2 |
| 20260905214758 | 89 | 188 | 2.0 | 12.0 | 0.00 | 0.00 | 0.00 | 29 | 1020.2 |
| 20260905214257 | 89 | 251 | 12.0 | 12.0 | 0.00 | 0.00 | 0.00 | 29 | 1020.4 |
| 20260905213758 | 89 | 246 | 0.0 | 11.0 | 0.00 | 0.00 | 0.00 | 30 | 1020.3 |
| 20260905213258 | 87 | 234 | 5.0 | 8.0 | 0.00 | 0.00 | 0.00 | 30 | 1020.1 |
| 20260905212257 | 87 | 240 | 6.0 | 13.0 | 0.00 | 0.00 | 0.00 | 30 | 1020.4 |
| 20260905211757 | 87 | 294 | 3.0 | 8.0 | 0.00 | 0.00 | 0.00 | 29 | 1020.2 |
| 20260905211257 | 86 | 226 | 2.0 | 16.0 | 0.00 | 0.00 | 0.00 | 29 | 1020.3 |
| 20260905210758 | 86 | 217 | 2.0 | 16.0 | 0.00 | 0.00 | 0.00 | 29 | 1020.4 |
| 20260905210257 | 87 | 227 | 2.0 | 12.0 | 0.00 | 0.00 | 0.00 | 29 | 1020.3 |
| 20260905204757 | 89 | 260 | 2.0 | 4.0 | 0.00 | 0.00 | 0.00 | 29 | 1020.8 |
| 20260905204258 | 88 | 223 | 0.0 | 11.0 | 0.00 | 0.00 | 0.00 | 28 | 1020.8 |
| 20260905203757 | 87 | 233 | 3.0 | 12.0 | 0.00 | 0.00 | 0.00 | 29 | 1020.7 |
| 20260905203258 | 87 | 282 | 0.0 | 12.0 | 0.00 | 0.00 | 0.00 | 29 | 1020.7 |
| 20260905202757 | 87 | 267 | 3.0 | 12.0 | 0.00 | 0.00 | 0.00 | 30 | 1020.8 |
| 20260905201756 | 88 | 250 | 1.0 | 13.0 | 0.00 | 0.00 | 0.00 | 29 | 1021.1 |
| 20260905201257 | 88 | 233 | 7.0 | 12.0 | 0.00 | 0.00 | 0.00 | 29 | 1021.1 |
| 20260905200756 | 88 | 242 | 2.0 | 12.0 | 0.00 | 0.00 | 0.00 | 29 | 1021.0 |
| 20260905195757 | 89 | 246 | 7.0 | 13.0 | 0.00 | 0.00 | 0.00 | 28 | 1018.3 |
| 20260905195256 | 90 | 225 | 9.0 | 15.0 | 0.00 | 0.00 | 0.00 | 27 | 1018.1 |
| 20260905194757 | 90 | 209 | 6.0 | 15.0 | 0.00 | 0.00 | 0.00 | 27 | 1018.2 |
| 20260905194256 | 89 | 240 | 3.0 | 10.0 | 0.00 | 0.00 | 0.00 | 28 | 1018.1 |
| 20260905193756 | 89 | 197 | 2.0 | 12.0 | 0.00 | 0.00 | 0.00 | 28 | 1018.3 |
| 20260905193256 | 88 | 217 | 2.0 | 12.0 | 0.00 | 0.00 | 0.00 | 28 | 1018.2 |
| 20260905192756 | 89 | 260 | 4.0 | 12.0 | 0.00 | 0.00 | 0.00 | 27 | 1018.6 |
| 20260905192256 | 88 | 190 | 3.0 | 12.0 | 0.00 | 0.00 | 0.00 | 28 | 1018.5 |
| 20260905191256 | 90 | 246 | 11.0 | 14.0 | 0.00 | 0.00 | 0.00 | 25 | 1018.8 |
| 20260905190756 | 90 | 238 | 2.0 | 14.0 | 0.00 | 0.00 | 0.00 | 25 | 1018.8 |
| 20260905190256 | 89 | 217 | 7.0 | 14.0 | 0.00 | 0.00 | 0.00 | 26 | 1018.9 |
| 20260905185756 | 89 | 212 | 4.0 | 11.0 | 0.00 | 0.00 | 0.00 | 26 | 1018.9 |
| 20260905185256 | 88 | 238 | 6.0 | 14.0 | 0.00 | 0.00 | 0.00 | 27 | 1019.0 |
| 20260905184256 | 88 | 240 | 10.0 | 15.0 | 0.00 | 0.00 | 0.00 | 27 | 1019.1 |
| 20260905183255 | 86 | 207 | 3.0 | 12.0 | 0.00 | 0.00 | 0.00 | 29 | 1018.8 |
| 20260905182255 | 84 | 254 | 8.0 | 15.0 | 0.00 | 0.00 | 0.00 | 31 | 1018.6 |
| 20260905181756 | 84 | 256 | 4.0 | 13.0 | 0.00 | 0.00 | 0.00 | 31 | 1018.6 |
| 20260905181256 | 84 | 213 | 3.0 | 13.0 | 0.00 | 0.00 | 0.00 | 31 | 1018.7 |
| 20260905180755 | 85 | 254 | 5.0 | 12.0 | 0.00 | 0.00 | 0.00 | 32 | 1018.6 |
| 20260905180255 | 86 | 244 | 0.0 | 12.0 | 0.00 | 0.00 | 0.00 | 31 | 1018.8 |
| 20260905175755 | 86 | 231 | 7.0 | 12.0 | 0.00 | 0.00 | 0.00 | 29 | 1018.7 |
| 20260905175255 | 86 | 232 | 6.0 | 12.0 | 0.00 | 0.00 | 0.00 | 30 | 1018.7 |
| 20260905174255 | 85 | 250 | 2.0 | 13.0 | 0.00 | 0.00 | 0.00 | 29 | 1018.4 |
| 20260905173254 | 85 | 243 | 6.0 | 14.0 | 0.00 | 0.00 | 0.00 | 30 | 1018.5 |
| 20260905172754 | 85 | 221 | 6.0 | 14.0 | 0.00 | 0.00 | 0.00 | 31 | 1018.5 |
| 20260905171756 | 85 | 256 | 7.0 | 15.0 | 0.00 | 0.00 | 0.00 | 28 | 1018.3 |
| 20260905171254 | 85 | 192 | 5.0 | 11.0 | 0.00 | 0.00 | 0.00 | 29 | 1018.2 |
| 20260905170754 | 85 | 236 | 6.0 | 14.0 | 0.00 | 0.00 | 0.00 | 26 | 1018.1 |
| 20260905170254 | 84 | 246 | 2.0 | 14.0 | 0.00 | 0.00 | 0.00 | 27 | 1018.1 |
| 20260905165754 | 83 | 238 | 9.0 | 14.0 | 0.00 | 0.00 | 0.00 | 27 | 1018.1 |
| 20260905165254 | 83 | 261 | 9.0 | 14.0 | 0.00 | 0.00 | 0.00 | 27 | 1018.1 |
| 20260905164254 | 83 | 205 | 2.0 | 11.0 | 0.00 | 0.00 | 0.00 | 28 | 1018.0 |
| 20260905163754 | 83 | 223 | 5.0 | 11.0 | 0.00 | 0.00 | 0.00 | 28 | 1018.0 |
| 20260905163255 | 83 | 240 | 6.0 | 9.0 | 0.00 | 0.00 | 0.00 | 27 | 1018.0 |
| 20260905162743 | 83 | 234 | 6.0 | 9.0 | 0.00 | 0.00 | 0.00 | 27 | 1018.1 |
| 20260905162254 | 82 | 272 | 7.0 | 9.0 | 0.00 | 0.00 | 0.00 | 24 | 1018.0 |
| 20260905161754 | 82 | 250 | 2.0 | 9.0 | 0.00 | 0.00 | 0.00 | 24 | 1018.0 |
| 20260905161253 | 81 | 249 | 3.0 | 4.0 | 0.00 | 0.00 | 0.00 | 24 | 1017.7 |
| 20260905160754 | 80 | 188 | 0.0 | 7.0 | 0.00 | 0.00 | 0.00 | 22 | 1017.7 |
| 20260905160254 | 80 | 248 | 3.0 | 8.0 | 0.00 | 0.00 | 0.00 | 22 | 1017.8 |
| 20260905155755 | 80 | 237 | 2.0 | 8.0 | 0.00 | 0.00 | 0.00 | 22 | 1017.8 |